Regional Weather Roundup
Issued by NWS

Home | Current Version | Previous Version | Text Only | Print | Product List | Glossary Off
Versions: 1 2 3 4 5 6 7 8 9 10 11 12 13 14 15 16 17 18 19 20 21 22 23 24 25 26 27 28 29 30 31 32 33 34 35 36 37 38 39 40 41 42 43 44 45 46 47 48 49 50

021
ASUS43 KMKX 221817
RWRWI

WISCONSIN REGIONAL WEATHER ROUNDUP
NATIONAL WEATHER SERVICE MILWAUKEE/SULLIVAN WI
100 PM CDT FRI MAY 22 2015

NOTE: "FAIR" INDICATES FEW OR NO CLOUDS BELOW 12,000 FEET WITH NO
SIGNIFICANT WEATHER AND/OR OBSTRUCTIONS TO VISIBILITY.

WIZ001-002-006>008-014>016-023>028-221900-
NORTHWEST WISCONSIN

CITY           SKY/WX    TMP DP  RH WIND       PRES   REMARKS
SUPERIOR ARPT  SUNNY     63  40  42 E7        30.21S
ASHLAND        SUNNY     66  33  29 E3        30.22S
6HR MIN TEMP:  42; 6HR MAX TEMP:  67;

HAYWARD        SUNNY     66  27  23 E6        30.22S
6HR MIN TEMP:  38; 6HR MAX TEMP:  67;

SIREN          SUNNY     67  30  25 N6        30.22S
CUMBERLAND     SUNNY     64  30  27 W5        30.23S
RICE LAKE      SUNNY     65  28  24 CALM      30.24S
CHETEK         SUNNY     65  36  33 W5        30.23S
LADYSMITH      SUNNY     65  32  29 W6        30.24R
EAU CLAIRE     NOT AVBL
MENOMONIE      SUNNY     67  29  24 CALM      30.23S
NEW RICHMOND   SUNNY     67  31  26 CALM      30.23S
OSCEOLA        SUNNY     67  34  29 CALM      30.25S
$$

WIZ003>005-009-010-017-018-221900-
NORTH CENTRAL WISCONSIN

CITY           SKY/WX    TMP DP  RH WIND       PRES   REMARKS
MANITOWISH WTR SUNNY     61  28  28 NW10G17   30.21S
ARBOR VITAE    SUNNY     62  25  24 N14       30.21S
WOODRUFF       SUNNY     62  25  24 N14       30.21S
RHINELANDER    SUNNY     62  25  24 VRB7G16   30.22S
6HR MIN TEMP:  40; 6HR MAX TEMP:  63;

EAGLE RIVER    SUNNY     62  16  17 NE10G16   30.20S
LAND O LAKES   SUNNY     62  15  16 N7        30.22S
PHILLIPS       SUNNY     63  32  31 N7        30.21S
TOMAHAWK       SUNNY     62  29  28 NE7       30.22R
MEDFORD        SUNNY     63  33  32 W5        30.23R
MERRILL        SUNNY     63  32  30 N5        30.22S
$$

WIZ029-030-035-036-043>047-221900-
CENTRAL WISCONSIN

CITY           SKY/WX    TMP DP  RH WIND       PRES   REMARKS
WAUSAU         SUNNY     63  31  30 VRB3      30.21R
6HR MIN TEMP:  41; 6HR MAX TEMP:  64;

MOSINEE        SUNNY     64  34  32 VRB6      30.24R
MARSHFIELD     SUNNY     66  34  30 W7        30.23S
6HR MIN TEMP:  46; 6HR MAX TEMP:  67;

STEVENS POINT  SUNNY     63  29  27 NW5       30.23R
WAUPACA        SUNNY     67  29  23 W5        30.23S
WAUTOMA        NOT AVBL
WISC RAPIDS    SUNNY     66  28  24 VRB5      30.24S
6HR MIN TEMP:  46; 6HR MAX TEMP:  67;

CAMP DOUGLAS   NOT AVBL
$$

WIZ011>013-019>022-031-037>040-048>050-221900-
NORTHEAST WISCONSIN

CITY           SKY/WX    TMP DP  RH WIND       PRES   REMARKS
ANTIGO         SUNNY     61  31  31 NW5       30.22R
SHAWANO        SUNNY     65  32  28 S3        30.22S
OCONTO         SUNNY     59  28  30 S6        30.23S
STURGEON BAY   SUNNY     55  32  41 E10       30.27S
6HR MIN TEMP:  45; 6HR MAX TEMP:  55;

GREEN BAY      SUNNY     64  29  26 VRB6      30.24R
6HR MIN TEMP:  45; 6HR MAX TEMP:  65;

MANITOWOC      NOT AVBL
APPLETON       SUNNY     63  30  29 VRB6      30.24
CLINTONVILLE   SUNNY     64  28  25 NW6       30.22S
OSHKOSH        SUNNY     64  34  32 VRB6      30.24R
6HR MIN TEMP:  47; 6HR MAX TEMP:  64;

$$

WIZ032>034-041-042-053>061-221900-
SOUTHWEST WISCONSIN

CITY           SKY/WX    TMP DP  RH WIND       PRES   REMARKS
LA CROSSE      SUNNY     72  33  24 NW7       30.21S
6HR MIN TEMP:  48; 6HR MAX TEMP:  72;

SPARTA         SUNNY     68  32  26 NW6       30.22F
VIROQUA        SUNNY     67  31  26 CALM      30.22S
BOSCOBEL       SUNNY     72  34  24 VRB3      30.21S
6HR MIN TEMP:  44; 6HR MAX TEMP:  73;

PRAIRIE DU CHI SUNNY     71  35  27 NW5       30.21S
PLATTEVILLE    SUNNY     69  39  33 CALM      30.21F
$$

WIZ056-057-062-063-064-067-068-221900-
SOUTH CENTRAL WISCONSIN

CITY           SKY/WX    TMP DP  RH WIND       PRES   REMARKS
REEDSBURG      SUNNY     67  37  34 NW6       30.22F
BARABOO/DELLS  SUNNY     66  31  26 E3        30.22F
LONE ROCK      NOT AVBL
MINERAL POINT  SUNNY     70  34  26 CALM      30.22S
MADISON        SUNNY     67  32  27 S7        30.23S
6HR MIN TEMP:  46; 6HR MAX TEMP:  67;

MIDDLETON      SUNNY     69  30  23 NW3       30.23F
WATERTOWN      SUNNY     65  35  33 E3        30.23S
MONROE         SUNNY     68  36  30 SW6       30.22S
JANESVILLE     SUNNY     70  30  23 CALM      30.21F
$$

WIZ051-052-058>065-066-070>072-221900-
SOUTHEAST WISCONSIN

CITY           SKY/WX    TMP DP  RH WIND       PRES   REMARKS
MILWAUKEE      SUNNY     55  32  41 NE8       30.27S
6HR MIN TEMP:  48; 6HR MAX TEMP:  55;

WAUKESHA       SUNNY     63  34  34 SE6       30.26R
MILWAUKEE/TIMM SUNNY     59  23  25 E5        30.27R
RACINE         SUNNY     57  30  35 NE9       30.28S
6HR MIN TEMP:  48; 6HR MAX TEMP:  57;

BURLINGTON     SUNNY     62  30  29 SE7       30.24S
KENOSHA        SUNNY     59  31  34 E7        30.27R
6HR MIN TEMP:  48; 6HR MAX TEMP:  59;

FOND DU LAC    SUNNY     67  35  30 NW7       30.24S
6HR MIN TEMP:  46; 6HR MAX TEMP:  67;

SHEBOYGAN      SUNNY     58  32  37 SE10G22   30.26R
6HR MIN TEMP:  46; 6HR MAX TEMP:  60;

WEST BEND      SUNNY     63  32  31 S7        30.25R
JUNEAU         SUNNY     63  35  35 CALM      30.24F
$$

LSZ147-162-221900-
LAKE SUPERIOR

STATION/POSITION TIME  TEMP    WIND        PRES    WAVE
                       AIR SEA DIR/SP/G            HT/PER
                 (UTC) (F)     (DEG/KT/KT) (MB)    (FT/S)
W MID LAKE BUOY  1650   37 36  110/  2/  4   N/A     0
DEVILS ISLAND    1700   42     100/  6/  6   N/A
PORT WING        1740   47      30/  6/  7   N/A
SAXON HARBOR     1700   54        CALM       N/A
$$

LMZ867-665-643>646-221900-
LAKE MICHIGAN

STATION/POSITION TIME  TEMP    WIND        PRES    WAVE
                       AIR SEA DIR/SP/G            HT/PER
                 (UTC) (F)     (DEG/KT/KT) (MB)    (FT/S)
CHAMBERS ISLAND  1700   50      70/  6/  9   N/A
N MID LAKE BUOY  1650   38 36   90/  6/  6   N/A     1
SISTER BAY       1717   53     160/ 10/ 13   N/A
KEWAUNEE LAKESHO 1700   45     100/  5/  9   N/A
SHEBOYGAN LAKESH 1700           90/  9/ 10   N/A
PORT WASHINGTON  1740   48     100/  4/  5   N/A
ATWATER BUOY     1700   45 45  360/  4/  4   N/A
MILWAUKEE LAKESH 1700   45      50/  6/  6   N/A
S MID LAKE BUOY  1650   40 38  340/  6/  6   N/A     1
KENOSHA   LAKESH 1700   47      40/  7/  8   N/A
$$

TC  - TEMPERATURE IN CELSIUS
VSB - VISIBILITY IN STATUTE MILES
WCI - WIND CHILL INDEX
HX  - HEAT INDEX




USA.gov is the U.S. government's official web portal to all federal, state and local government web resources and services.